Flag for U.S.A. Weather past 2 weeks in Olathe, Kansas, U.S.A.

Now
69 °F

Fog.


Feels Like: 69 °F
Forecast: 66 / 85 °F
Wind: 6 mph from South

Location: Johnson County Executive Airport

Current Time: Sep 2, 2014 at 8:25:12 AM

Latest Report: Sep 2, 2014 at 7:53 AM


Visibility: 3 mi

Pressure: 29.94 "Hg

Humidity: 96%

Dew point: 68 °F

Location of OlatheLocation

Historic Weather in Olathe — Graph

°F

Olathe temperature yesterday

Maximum temperature yesterday: 78 °F (at 12:53 PM)
Minimum temperature yesterday: 64 °F (at 6:53 AM)
Average temperature yesterday: 70 °F

Past Weeks' High & Low Weather Summary

 TemperatureHumidityPressure
High96 °F (Aug 23, 3:53 PM)100% (Aug 31, 11:53 PM)30.11 "Hg (Aug 31, 11:53 PM)
Low64 °F (Sep 1, 6:53 AM)34% (Aug 23, 4:53 PM)29.67 "Hg (Aug 31, 8:53 PM)
Average80 °F70%29.88 "Hg
* Reported Aug 18 6:53 AM — Sep 2 6:53 AM, Olathe, Weather by CustomWeather, © 2014

Note: Actual official high and low records may vary slightly from our data, if they occured in-between our weather recording intervals... More about our weather records

Advertising

Olathe weather history for previous 24 hours

 ConditionsComfort  
Time TempWeatherWind HumidityBarometerVisibility
6:53 AM
Sep 2
68 °FFog.No wind100%29.91 "Hg2 mi
6:01 AM68 °FFog.5 mph100%29.92 "Hg1 mi
5:03 AM69 °FFog.7 mph100%29.91 "Hg3 mi
4:53 AM69 °FFog.7 mph100%29.88 "Hg2 mi
3:53 AM68 °FClear.No wind100%29.90 "Hg7 mi
2:53 AM69 °FPassing clouds.3 mph100%29.88 "Hg10 mi
1:53 AM69 °FClear.No wind100%29.88 "Hg9 mi
12:53 AM69 °FPassing clouds.No wind100%29.88 "Hg10 mi
11:53 PM
Sep 1
69 °FPassing clouds.3 mph100%29.87 "Hg10 mi
10:53 PM70 °FThundershowers. Partly cloudy.12 mph100%29.92 "Hg10 mi
10:02 PM70 °FPartly cloudy.3 mph100%29.88 "Hg9 mi
9:53 PM70 °FThundershowers. Partly cloudy.3 mph100%29.85 "Hg8 mi
8:53 PM73 °FMostly cloudy.5 mph84%29.80 "Hg10 mi
7:53 PM75 °FMostly cloudy.No wind79%29.82 "Hg10 mi
6:53 PM76 °FOvercast.3 mph74%29.84 "Hg10 mi
5:53 PM76 °FOvercast.3 mph74%29.85 "Hg10 mi
4:53 PM76 °FOvercast.3 mph77%29.85 "Hg10 mi
3:53 PM77 °FOvercast.8 mph69%29.86 "Hg10 mi
2:53 PM78 °FOvercast.9 mph66%29.87 "Hg10 mi
1:53 PM78 °FScattered clouds.9 mph71%29.88 "Hg10 mi
12:53 PM78 °FScattered clouds.9 mph69%29.89 "Hg10 mi
11:53 AM75 °FPartly sunny.10 mph71%29.88 "Hg10 mi
10:53 AM73 °FSunny.10 mph76%29.86 "Hg10 mi
9:53 AM67 °FScattered clouds.13 mph90%29.85 "Hg10 mi
8:53 AM65 °FPartly sunny.10 mph94%29.84 "Hg10 mi
Weather by CustomWeather, © 2014

See weather overviewHow to use our weather pages